• In Uzbekistan
  • List of Countries
  • For 7 days
  • Water Temperature
  • Satellite Maps
  • Weather Map
  • Weather Widgets
  • user-avatar
    Login

    Hourly Weather Dubai

    Today, 19 October, Thursday

    Time Temperature Precipitation Wind Pressure Humidity
    00:00 +29°C° 0 mm 1 mps 756 mmHg 72%
    01:00 +29°C° 0 mm 1 mps 756 mmHg 71%
    02:00 +29°C° 0 mm 1 mps 756 mmHg 68%
    03:00 +29°C° 0 mm 2 mps 756 mmHg 65%
    04:00 +29°C° 0 mm 2 mps 756 mmHg 62%
    05:00 +30°C° 0 mm 3 mps 756 mmHg 57%
    06:00 +30°C° 0 mm 3 mps 757 mmHg 53%
    07:00 +30°C° 0 mm 3 mps 757 mmHg 49%
    08:00 +34°C° 0 mm 4 mps 757 mmHg 41%
    09:00 +36°C° 0 mm 4 mps 758 mmHg 32%
    10:00 +40°C° 0 mm 5 mps 758 mmHg 24%
    11:00 +40°C° 0 mm 5 mps 757 mmHg 22%
    12:00 +41°C° 0 mm 5 mps 757 mmHg 21%
    13:00 +42°C° 0 mm 5 mps 757 mmHg 19%
    14:00 +41°C° 0 mm 6 mps 756 mmHg 19%
    15:00 +41°C° 0 mm 6 mps 756 mmHg 20%
    16:00 +41°C° 0 mm 6 mps 756 mmHg 20%
    17:00 +39°C° 0 mm 6 mps 756 mmHg 22%
    18:00 +36°C° 0 mm 5 mps 756 mmHg 24%
    19:00 +35°C° 0 mm 5 mps 756 mmHg 25%
    20:00 +34°C° 0 mm 4 mps 756 mmHg 25%
    21:00 +33°C° 0 mm 3 mps 757 mmHg 25%
    22:00 +31°C° 0 mm 3 mps 757 mmHg 24%
    23:00 +31°C° 0 mm 3 mps 757 mmHg 24%

    Tomorrow, 20 October, Friday

    Time Temperature Precipitation Wind Pressure Humidity
    00:00 +31°C° 0 mm 2 mps 757 mmHg 24%
    01:00 +31°C° 0 mm 2 mps 757 mmHg 24%
    02:00 +31°C° 0 mm 2 mps 756 mmHg 24%
    03:00 +30°C° 0 mm 3 mps 756 mmHg 25%
    04:00 +30°C° 0 mm 3 mps 756 mmHg 26%
    05:00 +30°C° 0 mm 3 mps 756 mmHg 26%
    06:00 +30°C° 0 mm 2 mps 756 mmHg 27%
    07:00 +30°C° 0 mm 2 mps 757 mmHg 28%
    08:00 +32°C° 0 mm 2 mps 757 mmHg 26%
    09:00 +35°C° 0 mm 2 mps 757 mmHg 25%
    10:00 +37°C° 0 mm 1 mps 758 mmHg 23%
    11:00 +38°C° 0 mm 2 mps 757 mmHg 21%
    12:00 +39°C° 0 mm 2 mps 757 mmHg 19%
    13:00 +40°C° 0 mm 2 mps 756 mmHg 17%
    14:00 +39°C° 0 mm 3 mps 756 mmHg 20%
    15:00 +40°C° 0 mm 4 mps 756 mmHg 23%
    16:00 +39°C° 0 mm 5 mps 755 mmHg 26%
    17:00 +36°C° 0 mm 4 mps 755 mmHg 35%
    18:00 +34°C° 0 mm 4 mps 755 mmHg 44%
    19:00 +31°C° 0 mm 3 mps 755 mmHg 53%
    20:00 +30°C° 0 mm 3 mps 756 mmHg 54%
    21:00 +30°C° 0 mm 2 mps 756 mmHg 55%
    22:00 +29°C° 0 mm 2 mps 756 mmHg 57%
    23:00 +29°C° 0 mm 2 mps 756 mmHg 58%

    Day after tomorrow, 21 October, Saturday

    Time Temperature Precipitation Wind Pressure Humidity
    00:00 +29°C° 0 mm 2 mps 756 mmHg 59%
    01:00 +28°C° 0 mm 2 mps 755 mmHg 61%
    02:00 +28°C° 0 mm 1 mps 755 mmHg 62%
    03:00 +28°C° 0 mm 1 mps 755 mmHg 63%
    04:00 +27°C° 0 mm 1 mps 755 mmHg 65%
    05:00 +28°C° 0 mm 1 mps 755 mmHg 63%
    06:00 +28°C° 0 mm 2 mps 755 mmHg 62%
    07:00 +28°C° 0 mm 2 mps 756 mmHg 61%
    08:00 +30°C° 0 mm 2 mps 756 mmHg 53%
    09:00 +32°C° 0 mm 2 mps 756 mmHg 45%
    10:00 +35°C° 0 mm 2 mps 756 mmHg 37%
    11:00 +36°C° 0 mm 2 mps 756 mmHg 33%
    12:00 +37°C° 0 mm 2 mps 755 mmHg 30%
    13:00 +38°C° 0 mm 3 mps 755 mmHg 26%
    14:00 +38°C° 0 mm 3 mps 754 mmHg 28%
    15:00 +37°C° 0 mm 4 mps 754 mmHg 30%
    16:00 +37°C° 0 mm 4 mps 754 mmHg 32%
    17:00 +35°C° 0 mm 4 mps 754 mmHg 40%
    18:00 +33°C° 0 mm 3 mps 754 mmHg 48%
    19:00 +31°C° 0 mm 3 mps 755 mmHg 55%
    20:00 +30°C° 0 mm 2 mps 755 mmHg 56%
    21:00 +29°C° 0 mm 2 mps 755 mmHg 57%
    22:00 +29°C° 0 mm 1 mps 755 mmHg 57%
    23:00 +28°C° 0 mm 1 mps 755 mmHg 57%

    22 October, Sunday

    Time Temperature Precipitation Wind Pressure Humidity
    00:00 +28°C° 0 mm 1 mps 755 mmHg 56%
    01:00 +27°C° 0 mm 2 mps 754 mmHg 56%
    02:00 +27°C° 0 mm 2 mps 754 mmHg 54%
    03:00 +27°C° 0 mm 2 mps 754 mmHg 53%
    04:00 +27°C° 0 mm 2 mps 754 mmHg 52%
    05:00 +27°C° 0 mm 2 mps 754 mmHg 48%
    06:00 +27°C° 0 mm 2 mps 755 mmHg 45%
    07:00 +28°C° 0 mm 2 mps 755 mmHg 41%
    08:00 +30°C° 0 mm 2 mps 756 mmHg 36%
    09:00 +33°C° 0 mm 3 mps 756 mmHg 31%
    10:00 +36°C° 0 mm 3 mps 756 mmHg 26%
    11:00 +36°C° 0 mm 3 mps 756 mmHg 27%
    12:00 +37°C° 0 mm 4 mps 755 mmHg 28%
    13:00 +39°C° 0 mm 5 mps 755 mmHg 28%
    14:00 +39°C° 0 mm 5 mps 754 mmHg 32%
    15:00 +38°C° 0 mm 6 mps 754 mmHg 36%
    16:00 +38°C° 0 mm 6 mps 754 mmHg 40%
    17:00 +35°C° 0 mm 5 mps 754 mmHg 46%
    18:00 +34°C° 0 mm 4 mps 754 mmHg 52%
    19:00 +31°C° 0 mm 3 mps 755 mmHg 58%
    20:00 +30°C° 0 mm 3 mps 755 mmHg 61%
    21:00 +30°C° 0 mm 3 mps 755 mmHg 64%
    22:00 +29°C° 0 mm 2 mps 755 mmHg 67%
    23:00 +29°C° 0 mm 2 mps 755 mmHg 66%

    23 October, Monday

    Time Temperature Precipitation Wind Pressure Humidity
    00:00 +29°C° 0 mm 2 mps 755 mmHg 65%
    01:00 +29°C° 0 mm 2 mps 755 mmHg 65%
    02:00 +28°C° 0 mm 2 mps 755 mmHg 65%
    03:00 +28°C° 0 mm 2 mps 755 mmHg 65%
    04:00 +28°C° 0 mm 3 mps 755 mmHg 65%
    05:00 +28°C° 0 mm 3 mps 755 mmHg 63%
    06:00 +28°C° 0 mm 3 mps 756 mmHg 62%
    07:00 +28°C° 0 mm 3 mps 756 mmHg 60%
    08:00 +30°C° 0 mm 3 mps 756 mmHg 53%
    09:00 +33°C° 0 mm 3 mps 757 mmHg 46%
    10:00 +35°C° 0 mm 2 mps 757 mmHg 40%
    11:00 +36°C° 0 mm 3 mps 757 mmHg 37%
    12:00 +37°C° 0 mm 3 mps 756 mmHg 35%
    13:00 +38°C° 0 mm 3 mps 756 mmHg 32%
    14:00 +37°C° 0 mm 4 mps 756 mmHg 35%
    15:00 +37°C° 0 mm 4 mps 755 mmHg 37%
    16:00 +37°C° 0 mm 4 mps 755 mmHg 40%
    17:00 +35°C° 0 mm 4 mps 756 mmHg 47%
    18:00 +33°C° 0 mm 3 mps 756 mmHg 54%
    19:00 +31°C° 0 mm 2 mps 756 mmHg 61%
    20:00 +30°C° 0 mm 2 mps 757 mmHg 63%
    21:00 +30°C° 0 mm 2 mps 757 mmHg 65%
    22:00 +29°C° 0 mm 1 mps 757 mmHg 67%
    23:00 +29°C° 0 mm 1 mps 757 mmHg 68%

    24 October, Tuesday

    Time Temperature Precipitation Wind Pressure Humidity
    00:00 +28°C° 0 mm 1 mps 757 mmHg 69%
    01:00 +28°C° 0 mm 2 mps 756 mmHg 70%
    02:00 +28°C° 0 mm 2 mps 756 mmHg 70%
    03:00 +27°C° 0 mm 2 mps 756 mmHg 69%
    04:00 +27°C° 0 mm 2 mps 756 mmHg 69%
    05:00 +27°C° 0 mm 2 mps 757 mmHg 67%
    06:00 +27°C° 0 mm 2 mps 757 mmHg 65%
    07:00 +27°C° 0 mm 2 mps 758 mmHg 62%
    08:00 +30°C° 0 mm 2 mps 758 mmHg 55%
    09:00 +32°C° 0 mm 2 mps 759 mmHg 47%
    10:00 +35°C° 0 mm 2 mps 759 mmHg 39%
    11:00 +36°C° 0 mm 2 mps 758 mmHg 35%
    12:00 +37°C° 0 mm 2 mps 758 mmHg 32%
    13:00 +38°C° 0 mm 2 mps 757 mmHg 28%
    14:00 +37°C° 0 mm 3 mps 757 mmHg 31%
    15:00 +37°C° 0 mm 4 mps 757 mmHg 34%
    16:00 +37°C° 0 mm 5 mps 757 mmHg 37%
    17:00 +35°C° 0 mm 5 mps 757 mmHg 43%
    18:00 +34°C° 0 mm 4 mps 757 mmHg 49%
    19:00 +33°C° 0 mm 4 mps 758 mmHg 56%
    20:00 +32°C° 0 mm 4 mps 758 mmHg 56%
    21:00 +32°C° 0 mm 4 mps 758 mmHg 57%
    22:00 +31°C° 0 mm 3 mps 758 mmHg 58%
    23:00 +30°C° 0 mm 3 mps 758 mmHg 59%
    Show more